Gainesville, GA

9:45 PM EDT on July 27, 2017 (GMT -0400)
Gilmer Memorial

Weather History for KGVL - October, 2010

Change the Weather History Date:

Wednesday, October 27, 2010

  Actual Average Record
Temperature  
Mean Temperature 70 °F 59 °F  
Max Temperature 77 °F 69 °F 87 °F (1940)
Min Temperature 66 °F 49 °F 27 °F (1942)
Degree Days  
Heating Degree Days 0 7  
Month to date heating degree days 114  
Since 1 July heating degree days 127  
Cooling Degree Days 6 1  
Month to date cooling degree days 40  
Year to date cooling degree days 1581  
Growing Degree Days 20 (Base 50)    
Moisture  
Dew Point 68 °F    
Average Humidity 90    
Maximum Humidity 100    
Minimum Humidity 73    
Precipitation  
Precipitation 0.70 in 0.11 in 1.78 in (2006)
Month to date precipitation 3.65  
Year to date precipitation 44.58  
Sea Level Pressure  
Sea Level Pressure 30.01 in    
Wind  
Wind Speed 7 mph (SW)    
Max Wind Speed 21 mph    
Max Gust Speed 28 mph    
Visibility 6 miles    
Events Fog , Rain , Thunderstorm    
T = Trace of Precipitation, MM = Missing Value Source: NWS Daily Summary

Daily Weather History Graph

Daily Weather History Graph

Search for Another Location

Airport or City:

Trip Planner

Search our weather history database for the weather conditions in past years. The results will help you decide how hot, cold, wet, or windy it might be!

Date:

Astronomy

Oct. 27, 2010 Rise Set
Actual Time 7:50 AM EDT 6:47 PM EDT
Civil Twilight 7:25 AM EDT 7:12 PM EDT
Nautical Twilight 6:55 AM EDT 7:42 PM EDT
Astronomical Twilight 6:26 AM EDT 8:11 PM EDT
Moon 10:18 PM EDT (10/27) 12:14 PM EDT (10/27)
Length of Visible Light 11h 47m
Length of Day
10h 56m
Waning Gibbous, 79% of the Moon is Illuminated
Oct 27
Waning Gibbous
Oct 30
Last Quarter
Nov 6
New
Nov 13
First Quarter
Nov 21
Full

Hourly Weather History & Observations

Time (EDT) Temp. Dew Point Humidity Pressure Visibility Wind Dir Wind Speed Gust Speed Precip Events Conditions
12:53 AM 73.9 °F 66.9 °F 79% 29.87 in 10.0 mi SSW 9.2 mph 19.6 mph N/A   Partly Cloudy
1:07 AM 75.2 °F 66.2 °F 73% 29.91 in 10.0 mi SSW 8.1 mph 18.4 mph N/A   Mostly Cloudy
1:53 AM 73.9 °F 66.9 °F 79% 29.88 in 10.0 mi SSW 8.1 mph 19.6 mph N/A   Overcast
2:53 AM 73.9 °F 66.9 °F 79% 29.89 in 10.0 mi SSW 9.2 mph 17.3 mph N/A   Overcast
3:53 AM 73.0 °F 66.9 °F 81% 29.89 in 10.0 mi Variable 6.9 mph 17.3 mph 0.01 in   Overcast
4:53 AM 73.0 °F 68.0 °F 84% 29.90 in 10.0 mi SSW 4.6 mph - N/A   Overcast
5:53 AM 73.0 °F 68.0 °F 84% 29.91 in 10.0 mi SSW 5.8 mph - N/A   Overcast
6:53 AM 73.0 °F 68.0 °F 84% 29.94 in 10.0 mi SSW 5.8 mph - 0.00 in Rain Light Rain
7:53 AM 73.0 °F 68.0 °F 84% 29.94 in 10.0 mi SSW 9.2 mph - 0.00 in   Overcast
8:53 AM 72.0 °F 69.1 °F 91% 29.96 in 10.0 mi South 5.8 mph - 0.00 in   Overcast
9:53 AM 73.0 °F 69.1 °F 87% 29.99 in 10.0 mi SSW 8.1 mph - N/A   Overcast
10:53 AM 72.0 °F 69.1 °F 91% 29.99 in 5.0 mi SW 9.2 mph - 0.02 in Rain Light Rain
11:01 AM 71.6 °F 69.8 °F 94% 30.04 in 3.0 mi SW 6.9 mph - 0.01 in Rain , Thunderstorm Light Rain
11:11 AM 71.6 °F 69.8 °F 94% 30.04 in 2.5 mi SW 5.8 mph - 0.05 in Rain , Thunderstorm Thunderstorms and Rain
11:13 AM 71.6 °F 69.8 °F 94% 30.04 in 1.8 mi SW 4.6 mph - 0.06 in Rain , Thunderstorm Heavy Thunderstorms and Rain
11:15 AM 71.6 °F 69.8 °F 94% 30.04 in 1.5 mi SW 5.8 mph - 0.07 in Rain , Thunderstorm Heavy Thunderstorms and Rain
11:19 AM 71.6 °F 69.8 °F 94% 30.05 in 1.8 mi SW 4.6 mph - 0.07 in Rain , Thunderstorm Light Thunderstorms and Rain
11:22 AM 71.6 °F 69.8 °F 94% 30.04 in 2.5 mi SW 5.8 mph - 0.08 in Rain , Thunderstorm Light Thunderstorms and Rain
11:24 AM 71.6 °F 69.8 °F 94% 30.05 in 3.0 mi SW 9.2 mph - 0.08 in Rain , Thunderstorm Light Thunderstorms and Rain
11:32 AM 71.6 °F 69.8 °F 94% 30.05 in 5.0 mi SW 8.1 mph - 0.08 in Rain Light Rain
11:45 AM 71.6 °F 69.8 °F 94% 30.05 in 10.0 mi WSW 9.2 mph - 0.08 in Rain Light Rain
11:53 AM 72.0 °F 69.1 °F 91% 30.01 in 10.0 mi West 6.9 mph - 0.08 in Rain Light Rain
12:04 PM 71.6 °F 69.8 °F 94% 30.06 in 10.0 mi WSW 5.8 mph - 0.00 in   Overcast
12:14 PM 71.6 °F 69.8 °F 94% 30.06 in 10.0 mi Variable 4.6 mph - 0.00 in   Overcast
12:53 PM 73.0 °F 70.0 °F 90% 30.00 in 10.0 mi Variable 4.6 mph - 0.00 in   Mostly Cloudy
1:53 PM 73.9 °F 70.0 °F 87% 29.99 in 10.0 mi SW 5.8 mph - 0.00 in   Overcast
2:10 PM 73.4 °F 69.8 °F 88% 30.03 in 10.0 mi SW 5.8 mph - N/A   Overcast
2:30 PM 73.4 °F 69.8 °F 88% 30.03 in 10.0 mi SSW 6.9 mph - N/A   Overcast
2:50 PM 75.2 °F 69.8 °F 83% 30.02 in 10.0 mi SW 6.9 mph - N/A   Overcast
2:53 PM 75.0 °F 70.0 °F 84% 29.98 in 10.0 mi SW 9.2 mph - N/A   Overcast
3:53 PM 75.0 °F 69.1 °F 82% 29.96 in 10.0 mi SSW 8.1 mph 17.3 mph N/A   Overcast
4:19 PM 73.4 °F 69.8 °F 88% 30.01 in 10.0 mi SW 3.5 mph - N/A   Mostly Cloudy
4:35 PM 73.4 °F 69.8 °F 88% 30.00 in 5.0 mi Calm Calm - 0.02 in Thunderstorm Mostly Cloudy
4:41 PM 73.4 °F 69.8 °F 88% 30.03 in 2.0 mi WNW 13.8 mph 23.0 mph 0.06 in Rain , Thunderstorm Heavy Thunderstorms and Rain
4:43 PM 71.6 °F 69.8 °F 94% 30.03 in 0.8 mi WNW 20.7 mph 27.6 mph 0.22 in Rain , Thunderstorm Heavy Thunderstorms and Rain
4:46 PM 69.8 °F 68.0 °F 94% 30.03 in 0.2 mi NW 13.8 mph 27.6 mph 0.42 in Fog , Rain , Thunderstorm Heavy Thunderstorms and Rain
4:53 PM 69.1 °F 66.9 °F 93% 29.99 in 0.5 mi WNW 8.1 mph 23.0 mph 0.51 in Fog , Rain , Thunderstorm Heavy Thunderstorms and Rain
4:55 PM 69.8 °F 66.2 °F 88% 30.03 in 0.8 mi WNW 6.9 mph - 0.00 in Rain , Thunderstorm Thunderstorms and Rain
4:57 PM 69.8 °F 66.2 °F 88% 30.03 in 1.5 mi West 5.8 mph - 0.01 in Rain , Thunderstorm Rain
4:59 PM 69.8 °F 68.0 °F 94% 30.03 in 2.5 mi West 5.8 mph - 0.01 in Rain , Thunderstorm Rain
5:07 PM 69.8 °F 68.0 °F 94% 30.04 in 5.0 mi SW 5.8 mph - 0.02 in Rain , Thunderstorm Light Rain
5:23 PM 69.8 °F 68.0 °F 94% 30.03 in 4.0 mi Calm Calm - 0.04 in Rain Rain
5:53 PM 70.0 °F 68.0 °F 93% 30.00 in 5.0 mi WSW 9.2 mph - 0.05 in Rain Rain
6:53 PM 69.1 °F 66.9 °F 93% 30.00 in 10.0 mi WSW 4.6 mph - 0.02 in   Scattered Clouds
7:53 PM 68.0 °F 66.9 °F 96% 30.02 in 10.0 mi SW 4.6 mph - 0.00 in   Mostly Cloudy
8:53 PM 68.0 °F 66.9 °F 96% 30.02 in 8.0 mi SW 3.5 mph - N/A   Mostly Cloudy
9:53 PM 68.0 °F 66.9 °F 96% 30.04 in 10.0 mi SW 4.6 mph - N/A   Overcast
10:53 PM 68.0 °F 66.9 °F 96% 30.05 in 8.0 mi Calm Calm - 0.01 in   Scattered Clouds
11:07 PM 68.0 °F 66.2 °F 94% 30.09 in 8.0 mi Calm Calm - N/A   Mostly Cloudy
11:27 PM 66.2 °F 66.2 °F 100% 30.09 in 2.0 mi Calm Calm - N/A   Overcast
11:31 PM 68.0 °F 66.2 °F 94% 30.09 in 1.5 mi Calm Calm - N/A   Overcast
11:38 PM 68.0 °F 66.2 °F 94% 30.10 in 1.5 mi Calm Calm - N/A   Overcast
11:40 PM 68.0 °F 66.2 °F 94% 30.10 in 2.0 mi Calm Calm - N/A   Overcast
11:43 PM 68.0 °F 66.2 °F 94% 30.10 in 3.0 mi Calm Calm - N/A   Overcast
11:51 PM 68.0 °F 66.2 °F 94% 30.10 in 1.8 mi Calm Calm - N/A   Overcast
11:53 PM 68.0 °F 66.9 °F 96% 30.06 in 1.0 mi Calm Calm - N/A   Overcast